軌道要素
Epoch 2024 Mar. 31.0 TT = JDT 2460400.5
T 2023 Nov. 1.92682 TT Rudenko
q 2.0636031 (2000.0) P Q
z +0.0271624 Peri. 168.95058 -0.88700381 -0.10130561
+/-0.0000003 Node 332.87030 +0.31108501 +0.58990918
e 0.9439477 Incl. 98.90290 +0.34124823 -0.80108947
>From 685 observations 2022 July 20-2024 Mar. 18, mean residual 0".4.
|